[Date Prev][Date Next][Thread Prev][Thread Next] - [Date Index][Thread Index][Author Index]

2 Line ISS Keps 1-3



ISS
1 25544U 98067A   02003.19196759  .00056961  00000-0  64507-3 0  9163
2 25544  51.6378 162.2458 0002638  75.0551 276.8259 15.61842842178288


----
Via the sarex mailing list at AMSAT.ORG courtesy of AMSAT-NA.
To unsubscribe, send "unsubscribe sarex" to Majordomo@amsat.org



AMSAT Top AMSAT Home